| time (UTC) | temp C | wind direction | speed KPH | gust KPH | rain 1hr cm | rain 24hr cm | rain mn cm | humidity % | barometer mb |
| 20260505024022 | 15 | 264 | 3.2 | 14.5 | 0.00 | 0.00 | 0.00 | 53 | 1011.6 |
| 20260505023522 | 15 | 247 | 0.0 | 8.0 | 0.00 | 0.00 | 0.00 | 52 | 1011.6 |
| 20260505023040 | 15 | 268 | 1.6 | 8.0 | 0.00 | 0.00 | 0.00 | 52 | 1011.7 |
| 20260505022520 | 15 | 271 | 3.2 | 8.0 | 0.00 | 0.00 | 0.00 | 53 | 1011.6 |
| 20260505022022 | 16 | 0 | 1.6 | 9.7 | 0.00 | 0.00 | 0.00 | 51 | 1011.5 |
| 20260505021547 | 16 | 243 | 1.6 | 9.7 | 0.00 | 0.00 | 0.00 | 52 | 1011.6 |
| 20260505021019 | 16 | 234 | 3.2 | 9.7 | 0.00 | 0.00 | 0.00 | 51 | 1011.6 |
| 20260505020521 | 16 | 260 | 3.2 | 9.7 | 0.00 | 0.00 | 0.00 | 51 | 1011.6 |
| 20260505020045 | 16 | 257 | 3.2 | 9.7 | 0.00 | 0.00 | 0.00 | 51 | 1011.6 |
| 20260505015526 | 16 | 263 | 3.2 | 9.7 | 0.00 | 0.00 | 0.00 | 50 | 1011.6 |
| 20260505015023 | 16 | 233 | 3.2 | 9.7 | 0.00 | 0.00 | 0.00 | 50 | 1011.4 |
| 20260505014535 | 16 | 265 | 1.6 | 9.7 | 0.00 | 0.00 | 0.00 | 50 | 1011.4 |
| 20260505014026 | 16 | 292 | 1.6 | 12.9 | 0.00 | 0.00 | 0.00 | 49 | 1011.3 |
| 20260505013522 | 16 | 255 | 3.2 | 12.9 | 0.00 | 0.00 | 0.00 | 49 | 1011.3 |
| 20260505013043 | 16 | 84 | 3.2 | 11.3 | 0.00 | 0.00 | 0.00 | 48 | 1011.1 |
| 20260505012522 | 16 | 266 | 1.6 | 12.9 | 0.00 | 0.00 | 0.00 | 48 | 1011.0 |
| 20260505012022 | 17 | 275 | 4.8 | 12.9 | 0.00 | 0.00 | 0.00 | 48 | 1010.8 |
| 20260505011549 | 17 | 264 | 3.2 | 11.3 | 0.00 | 0.00 | 0.00 | 46 | 1010.8 |
| 20260505011021 | 17 | 262 | 4.8 | 12.9 | 0.00 | 0.00 | 0.00 | 46 | 1010.7 |
| 20260505010525 | 17 | 278 | 3.2 | 12.9 | 0.00 | 0.00 | 0.00 | 45 | 1010.6 |
| 20260505010040 | 17 | 279 | 3.2 | 12.9 | 0.00 | 0.00 | 0.00 | 44 | 1010.5 |
| 20260505005523 | 17 | 276 | 0.0 | 6.4 | 0.00 | 0.00 | 0.00 | 43 | 1010.4 |
| 20260505005023 | 17 | 0 | 0.0 | 6.4 | 0.00 | 0.00 | 0.00 | 42 | 1010.2 |
| 20260505004543 | 17 | 271 | 0.0 | 4.8 | 0.00 | 0.00 | 0.00 | 43 | 1010.1 |
| 20260505004020 | 17 | 0 | 0.0 | 4.8 | 0.00 | 0.00 | 0.00 | 44 | 1010.1 |
| 20260505003522 | 17 | 0 | 0.0 | 1.6 | 0.00 | 0.00 | 0.00 | 43 | 1010.0 |
| 20260505003035 | 17 | 0 | 0.0 | 1.6 | 0.00 | 0.00 | 0.00 | 43 | 1009.9 |
| 20260505002522 | 17 | 0 | 0.0 | 3.2 | 0.00 | 0.00 | 0.00 | 43 | 1009.8 |
| 20260505002022 | 17 | 0 | 0.0 | 3.2 | 0.00 | 0.00 | 0.00 | 42 | 1009.7 |
| 20260505001540 | 17 | 271 | 0.0 | 3.2 | 0.00 | 0.00 | 0.00 | 42 | 1009.5 |
| 20260505001022 | 17 | 0 | 0.0 | 1.6 | 0.00 | 0.00 | 0.00 | 43 | 1009.4 |
| 20260505000522 | 17 | 0 | 0.0 | 1.6 | 0.00 | 0.00 | 0.00 | 41 | 1009.3 |
| 20260505000043 | 18 | 0 | 0.0 | 1.6 | 0.00 | 0.00 | 0.00 | 40 | 1009.2 |
| 20260504235522 | 18 | 0 | 0.0 | 1.6 | 0.00 | 0.00 | 0.00 | 39 | 1009.1 |
| 20260504235023 | 18 | 0 | 0.0 | 3.2 | 0.00 | 0.00 | 0.00 | 39 | 1009.1 |
| 20260504234538 | 18 | 0 | 0.0 | 4.8 | 0.00 | 0.00 | 0.00 | 37 | 1009.1 |
| 20260504234022 | 19 | 279 | 0.0 | 4.8 | 0.00 | 0.00 | 0.00 | 37 | 1008.9 |
| 20260504233523 | 19 | 272 | 0.0 | 3.2 | 0.00 | 0.00 | 0.00 | 37 | 1008.9 |
| 20260504233053 | 19 | 272 | 0.0 | 4.8 | 0.00 | 0.00 | 0.00 | 36 | 1008.8 |
| 20260504232523 | 19 | 262 | 1.6 | 4.8 | 0.00 | 0.00 | 0.00 | 36 | 1008.7 |
| 20260504232021 | 20 | 0 | 0.0 | 6.4 | 0.00 | 0.00 | 0.00 | 36 | 1008.8 |
| 20260504231544 | 20 | 0 | 1.6 | 6.4 | 0.00 | 0.00 | 0.00 | 36 | 1008.7 |
| 20260504231022 | 20 | 256 | 0.0 | 4.8 | 0.00 | 0.00 | 0.00 | 35 | 1008.6 |
| 20260504230521 | 20 | 0 | 1.6 | 6.4 | 0.00 | 0.00 | 0.00 | 35 | 1008.6 |
| 20260504230044 | 20 | 278 | 0.0 | 8.0 | 0.00 | 0.00 | 0.00 | 35 | 1008.6 |
| 20260504225519 | 20 | 270 | 1.6 | 8.0 | 0.00 | 0.00 | 0.00 | 34 | 1008.5 |
| 20260504225023 | 20 | 253 | 0.0 | 20.9 | 0.00 | 0.00 | 0.00 | 34 | 1008.3 |
| 20260504224538 | 20 | 276 | 3.2 | 20.9 | 0.00 | 0.00 | 0.00 | 34 | 1008.4 |
| 20260504224022 | 20 | 245 | 6.4 | 20.9 | 0.00 | 0.00 | 0.00 | 34 | 1008.2 |
| 20260504223522 | 20 | 279 | 4.8 | 16.1 | 0.00 | 0.00 | 0.00 | 34 | 1008.2 |
| 20260504223040 | 20 | 258 | 4.8 | 16.1 | 0.00 | 0.00 | 0.00 | 34 | 1008.2 |
| 20260504222522 | 20 | 254 | 3.2 | 9.7 | 0.00 | 0.00 | 0.00 | 35 | 1008.1 |
| 20260504222023 | 20 | 282 | 3.2 | 14.5 | 0.00 | 0.00 | 0.00 | 34 | 1008.2 |
| 20260504221545 | 21 | 285 | 1.6 | 14.5 | 0.00 | 0.00 | 0.00 | 34 | 1008.2 |
| 20260504221022 | 21 | 274 | 0.0 | 14.5 | 0.00 | 0.00 | 0.00 | 34 | 1008.1 |
| 20260504220526 | 21 | 230 | 6.4 | 14.5 | 0.00 | 0.00 | 0.00 | 33 | 1008.2 |
| 20260504220038 | 21 | 248 | 4.8 | 9.7 | 0.00 | 0.00 | 0.00 | 33 | 1008.2 |
| 20260504215523 | 20 | 250 | 3.2 | 9.7 | 0.00 | 0.00 | 0.00 | 34 | 1008.2 |
| 20260504215019 | 20 | 0 | 1.6 | 9.7 | 0.00 | 0.00 | 0.00 | 34 | 1008.2 |
| 20260504214543 | 20 | 289 | 1.6 | 12.9 | 0.00 | 0.00 | 0.00 | 34 | 1008.1 |
| 20260504214020 | 20 | 251 | 3.2 | 20.9 | 0.00 | 0.00 | 0.00 | 33 | 1008.1 |
| 20260504213522 | 21 | 271 | 6.4 | 20.9 | 0.00 | 0.00 | 0.00 | 34 | 1008.2 |
| 20260504213045 | 20 | 263 | 3.2 | 11.3 | 0.00 | 0.00 | 0.00 | 34 | 1008.0 |
| 20260504212522 | 20 | 278 | 0.0 | 11.3 | 0.00 | 0.00 | 0.00 | 34 | 1008.1 |
| 20260504212021 | 20 | 292 | 6.4 | 12.9 | 0.00 | 0.00 | 0.00 | 34 | 1008.0 |
| 20260504211538 | 20 | 250 | 3.2 | 12.9 | 0.00 | 0.00 | 0.00 | 34 | 1008.0 |
| 20260504211019 | 20 | 290 | 3.2 | 14.5 | 0.00 | 0.00 | 0.00 | 33 | 1008.1 |
| 20260504210526 | 21 | 278 | 4.8 | 14.5 | 0.00 | 0.00 | 0.00 | 33 | 1008.1 |
| 20260504210041 | 21 | 253 | 4.8 | 12.9 | 0.00 | 0.00 | 0.00 | 32 | 1008.3 |
| 20260504205526 | 21 | 260 | 1.6 | 11.3 | 0.00 | 0.00 | 0.00 | 33 | 1008.0 |
| 20260504205020 | 21 | 0 | 3.2 | 17.7 | 0.00 | 0.00 | 0.00 | 33 | 1008.0 |
| 20260504204559 | 21 | 275 | 3.2 | 17.7 | 0.00 | 0.00 | 0.00 | 32 | 1008.0 |
| 20260504204022 | 21 | 345 | 3.2 | 6.4 | 0.00 | 0.00 | 0.00 | 33 | 1008.1 |
| 20260504203520 | 21 | 259 | 1.6 | 12.9 | 0.00 | 0.00 | 0.00 | 33 | 1008.2 |
| 20260504203044 | 21 | 258 | 3.2 | 12.9 | 0.00 | 0.00 | 0.00 | 32 | 1008.1 |
| 20260504202522 | 21 | 0 | 4.8 | 12.9 | 0.00 | 0.00 | 0.00 | 33 | 1008.1 |
| 20260504202019 | 21 | 251 | 1.6 | 12.9 | 0.00 | 0.00 | 0.00 | 33 | 1008.1 |
| 20260504201539 | 21 | 335 | 1.6 | 12.9 | 0.00 | 0.00 | 0.00 | 32 | 1008.2 |
| 20260504201022 | 21 | 338 | 3.2 | 9.7 | 0.00 | 0.00 | 0.00 | 33 | 1008.1 |
| 20260504200522 | 21 | 329 | 1.6 | 12.9 | 0.00 | 0.00 | 0.00 | 32 | 1008.0 |
| 20260504200043 | 21 | 248 | 1.6 | 22.5 | 0.00 | 0.00 | 0.00 | 32 | 1008.2 |
| 20260504195522 | 21 | 280 | 4.8 | 22.5 | 0.00 | 0.00 | 0.00 | 32 | 1008.1 |
| 20260504195022 | 21 | 252 | 8.0 | 22.5 | 0.00 | 0.00 | 0.00 | 32 | 1008.2 |
| 20260504194546 | 21 | 0 | 4.8 | 22.5 | 0.00 | 0.00 | 0.00 | 32 | 1008.3 |
| 20260504194022 | 21 | 278 | 3.2 | 22.5 | 0.00 | 0.00 | 0.00 | 31 | 1008.1 |
| 20260504193522 | 21 | 252 | 3.2 | 22.5 | 0.00 | 0.00 | 0.00 | 31 | 1008.2 |
| 20260504193045 | 22 | 262 | 6.4 | 17.7 | 0.00 | 0.00 | 0.00 | 31 | 1008.3 |
| 20260504192521 | 21 | 0 | 3.2 | 9.7 | 0.00 | 0.00 | 0.00 | 31 | 1008.2 |
| 20260504192021 | 21 | 89 | 3.2 | 9.7 | 0.00 | 0.00 | 0.00 | 31 | 1008.3 |
| 20260504191544 | 21 | 292 | 0.0 | 16.1 | 0.00 | 0.00 | 0.00 | 32 | 1008.2 |
| 20260504191022 | 21 | 297 | 1.6 | 16.1 | 0.00 | 0.00 | 0.00 | 32 | 1008.3 |
| 20260504190520 | 21 | 253 | 4.8 | 20.9 | 0.00 | 0.00 | 0.00 | 31 | 1008.3 |
| 20260504190043 | 21 | 257 | 3.2 | 20.9 | 0.00 | 0.00 | 0.00 | 31 | 1008.5 |
| 20260504185522 | 21 | 255 | 1.6 | 20.9 | 0.00 | 0.00 | 0.00 | 31 | 1008.5 |
| 20260504185019 | 21 | 282 | 6.4 | 20.9 | 0.00 | 0.00 | 0.00 | 32 | 1008.6 |
| 20260504184539 | 20 | 276 | 6.4 | 14.5 | 0.00 | 0.00 | 0.00 | 31 | 1008.6 |
| 20260504184021 | 20 | 268 | 4.8 | 14.5 | 0.00 | 0.00 | 0.00 | 32 | 1008.5 |
| 20260504183521 | 20 | 257 | 1.6 | 11.3 | 0.00 | 0.00 | 0.00 | 33 | 1008.6 |
| 20260504183035 | 20 | 287 | 1.6 | 12.9 | 0.00 | 0.00 | 0.00 | 32 | 1008.6 |
| 20260504182521 | 20 | 267 | 4.8 | 12.9 | 0.00 | 0.00 | 0.00 | 32 | 1008.6 |
| 20260504182022 | 20 | 287 | 1.6 | 9.7 | 0.00 | 0.00 | 0.00 | 33 | 1008.6 |
| 20260504181549 | 20 | 291 | 3.2 | 9.7 | 0.00 | 0.00 | 0.00 | 34 | 1008.7 |
| 20260504181021 | 19 | 0 | 3.2 | 12.9 | 0.00 | 0.00 | 0.00 | 33 | 1008.6 |
| 20260504180520 | 19 | 264 | 3.2 | 17.7 | 0.00 | 0.00 | 0.00 | 33 | 1008.8 |
| 20260504180045 | 19 | 246 | 4.8 | 17.7 | 0.00 | 0.00 | 0.00 | 33 | 1008.7 |
| 20260504175522 | 20 | 285 | 4.8 | 17.7 | 0.00 | 0.00 | 0.00 | 32 | 1008.8 |
| 20260504175021 | 20 | 248 | 3.2 | 19.3 | 0.00 | 0.00 | 0.00 | 32 | 1008.8 |
| 20260504174539 | 20 | 264 | 9.7 | 19.3 | 0.00 | 0.00 | 0.00 | 32 | 1008.7 |
| 20260504174021 | 20 | 261 | 6.4 | 24.1 | 0.00 | 0.00 | 0.00 | 31 | 1008.8 |
| 20260504173522 | 20 | 285 | 8.0 | 24.1 | 0.00 | 0.00 | 0.00 | 32 | 1008.8 |
| 20260504173038 | 20 | 283 | 6.4 | 25.7 | 0.00 | 0.00 | 0.00 | 31 | 1008.8 |
| 20260504172524 | 20 | 281 | 9.7 | 25.7 | 0.00 | 0.00 | 0.00 | 32 | 1009.0 |
| 20260504172022 | 20 | 258 | 3.2 | 17.7 | 0.00 | 0.00 | 0.00 | 34 | 1008.9 |
| 20260504171535 | 20 | 283 | 6.4 | 19.3 | 0.00 | 0.00 | 0.00 | 33 | 1009.1 |
| 20260504171023 | 20 | 254 | 6.4 | 19.3 | 0.00 | 0.00 | 0.00 | 32 | 1009.3 |
| 20260504170522 | 20 | 31 | 6.4 | 17.7 | 0.00 | 0.00 | 0.00 | 32 | 1009.2 |
| 20260504151022 | 17 | 254 | 9.7 | 27.4 | 0.00 | 0.00 | 0.00 | 39 | 1009.9 |
| 20260504150524 | 17 | 287 | 6.4 | 22.5 | 0.00 | 0.00 | 0.00 | 39 | 1010.0 |
| 20260504141021 | 16 | 287 | 0.0 | 11.3 | 0.00 | 0.00 | 0.00 | 45 | 1010.8 |
| 20260504140522 | 15 | 290 | 3.2 | 14.5 | 0.00 | 0.00 | 0.00 | 44 | 1010.8 |
| 20260504130522 | 13 | 288 | 6.4 | 14.5 | 0.00 | 0.00 | 0.00 | 49 | 1011.3 |
| 20260504110521 | 5 | 0 | 0.0 | 0.0 | 0.00 | 0.00 | 0.00 | 74 | 1012.0 |
| 20260504100522 | 4 | 0 | 0.0 | 0.0 | 0.00 | 0.00 | 0.00 | 74 | 1011.9 |
| 20260504081547 | 5 | 270 | 0.0 | 0.0 | 0.00 | 0.00 | 0.00 | 70 | 1011.6 |
| 20260504081020 | 4 | 0 | 0.0 | 0.0 | 0.00 | 0.00 | 0.00 | 69 | 1011.6 |
| 20260504080522 | 4 | 0 | 0.0 | 0.0 | 0.00 | 0.00 | 0.00 | 70 | 1011.6 |
| 20260504050523 | 1 | 0 | 0.0 | 0.0 | 0.00 | 0.00 | 0.00 | 82 | 1011.7 |
| 20260504045522 | 1 | 0 | 0.0 | 0.0 | 0.00 | 0.00 | 0.00 | 82 | 1011.8 |
| 20260504045022 | 1 | 0 | 0.0 | 0.0 | 0.00 | 0.00 | 0.00 | 81 | 1011.8 |
| 20260504044538 | 1 | 0 | 0.0 | 0.0 | 0.00 | 0.00 | 0.00 | 81 | 1011.8 |
| 20260504044022 | 1 | 0 | 0.0 | 0.0 | 0.00 | 0.00 | 0.00 | 81 | 1011.8 |
| 20260504043520 | 1 | 0 | 0.0 | 0.0 | 0.00 | 0.00 | 0.00 | 81 | 1011.8 |
| 20260504043042 | 1 | 0 | 0.0 | 0.0 | 0.00 | 0.00 | 0.00 | 81 | 1011.8 |
| 20260504042523 | 1 | 0 | 0.0 | 0.0 | 0.00 | 0.00 | 0.00 | 82 | 1011.8 |
| 20260504042022 | 1 | 0 | 0.0 | 0.0 | 0.00 | 0.00 | 0.00 | 81 | 1011.8 |
| 20260504041538 | 1 | 0 | 0.0 | 0.0 | 0.00 | 0.00 | 0.00 | 81 | 1011.8 |
| 20260504041022 | 1 | 0 | 0.0 | 0.0 | 0.00 | 0.00 | 0.00 | 81 | 1011.8 |
| 20260504040522 | 1 | 0 | 0.0 | 0.0 | 0.00 | 0.00 | 0.00 | 81 | 1011.8 |
| 20260504040038 | 1 | 0 | 0.0 | 0.0 | 0.00 | 0.00 | 0.00 | 80 | 1011.7 |
| 20260504035522 | 1 | 0 | 0.0 | 0.0 | 0.00 | 0.00 | 0.00 | 80 | 1011.7 |
| 20260504035021 | 1 | 0 | 0.0 | 0.0 | 0.00 | 0.00 | 0.00 | 81 | 1011.6 |
| 20260504034541 | 1 | 0 | 0.0 | 0.0 | 0.00 | 0.00 | 0.00 | 81 | 1011.5 |
| 20260504034022 | 1 | 0 | 0.0 | 0.0 | 0.00 | 0.00 | 0.00 | 81 | 1011.6 |
| 20260504033520 | 1 | 0 | 0.0 | 0.0 | 0.00 | 0.00 | 0.00 | 82 | 1011.6 |
| 20260504033040 | 1 | 0 | 0.0 | 0.0 | 0.00 | 0.00 | 0.00 | 82 | 1011.5 |
| 20260504032522 | 1 | 0 | 0.0 | 0.0 | 0.00 | 0.00 | 0.00 | 82 | 1011.5 |
| 20260504032020 | 1 | 0 | 0.0 | 0.0 | 0.00 | 0.00 | 0.00 | 81 | 1011.5 |
| 20260504031538 | 1 | 0 | 0.0 | 0.0 | 0.00 | 0.00 | 0.00 | 81 | 1011.5 |
| 20260504031021 | 2 | 0 | 0.0 | 0.0 | 0.00 | 0.00 | 0.00 | 81 | 1011.5 |
| 20260504030522 | 2 | 0 | 0.0 | 0.0 | 0.00 | 0.00 | 0.00 | 80 | 1011.5 |
| 20260504030039 | 2 | 0 | 0.0 | 0.0 | 0.00 | 0.00 | 0.00 | 80 | 1011.5 |
| 20260504025522 | 2 | 0 | 0.0 | 0.0 | 0.00 | 0.00 | 0.00 | 80 | 1011.4 |
| 20260504025022 | 2 | 0 | 0.0 | 0.0 | 0.00 | 0.00 | 0.00 | 80 | 1011.4 |
| 20260504024548 | 2 | 0 | 0.0 | 0.0 | 0.00 | 0.00 | 0.00 | 79 | 1011.5 |